Location: Meriden
(44.0740°N, 93.3870°W)
Time: 08:14:07
(UTC-05:00)

Amateur Radio Satellites - All Passes

Search period start: 25 August 2016 07:44
Search period end: 26 August 2016 07:44
Location: Meriden, 44.0740°N, 93.3870°W

Satellite Date Start Highest point End Downlink Frequencies (MHz)
Time Altitude Azimuth
LilacSat-2 25 Aug 07:47:09 07:50:56 69° 284° (WNW) 07:54:40 437.200
Cosmos 2491 25 Aug 07:48:11 07:55:39 32° 277° (W) 08:03:09 435.465 / 435.565
PHONESAT 2.4 25 Aug 07:52:12 07:54:36 22° 199° (SSW) 07:57:00 2401.200-2431.200
SO-50 25 Aug 07:52:12 07:55:04 16° 34° (NNE) 07:57:54 436.795
CANX-2 25 Aug 07:54:18 07:55:42 11° 89° (E) 07:57:06 2200.000
CINEMA 3 25 Aug 07:55:31 07:58:08 15° 89° (E) 08:00:40 145.822/145.860
CUTE 1.7 + AOD 2 25 Aug 08:00:52 08:02:25 12° 89° (E) 08:03:58 437.475
GOMX 1 25 Aug 08:07:50 08:13:13 57° 288° (WNW) 08:18:23 467.674
PRISM 25 Aug 08:13:09 08:16:22 23° 66° (ENE) 08:19:36 437.425
HO-68 25 Aug 08:15:21 08:21:16 27° 93° (E) 08:27:07 435.675
BRITE-PL 25 Aug 08:17:20 08:21:59 27° 296° (WNW) 08:26:39 437.365/2234.400
AO-85 25 Aug 08:21:00 08:25:19 26° 318° (NW) 08:29:25 145.980
DOVE 4 25 Aug 08:29:15 08:34:25 72° 285° (WNW) 08:39:17 437.250
Cubesat XI-IV 25 Aug 08:33:25 08:38:19 38° 293° (WNW) 08:43:12 437.490
CUTE-I 25 Aug 08:46:28 08:51:03 30° 295° (WNW) 08:55:37 437.470
NOAA 15 25 Aug 08:57:48 09:01:37 20° 299° (WNW) 09:05:25 137.62
NOAA 18 25 Aug 09:02:19 09:06:51 27° 297° (WNW) 09:11:22 137.9125
STRAND 1 25 Aug 09:03:10 09:06:24 17° 269° (W) 09:09:38 437.568
YUBILEINY 25 Aug 09:05:51 09:13:16 29° 295° (WNW) 09:20:44 435.215
RS-15 25 Aug 09:06:26 09:17:37 37° 28° (NNE) 09:28:46 29.354- 29.394
Cosmos 2504 25 Aug 09:09:50 09:18:14 61° 282° (WNW) 09:26:06 435.465 / 435.565
SEEDS 25 Aug 09:12:10 09:16:16 50° 99° (E) 09:20:21 437.485
TIGRISAT 25 Aug 09:19:39 09:22:00 14° 61° (ENE) 09:24:20 435.000
CANX-2 25 Aug 09:27:47 09:32:00 67° 285° (WNW) 09:36:12 2200.000
CINEMA 3 25 Aug 09:31:10 09:35:43 57° 287° (WNW) 09:40:02 145.822/145.860
SO-50 25 Aug 09:31:40 09:36:19 81° 54° (NE) 09:40:49 436.795
CUTE 1.7 + AOD 2 25 Aug 09:34:29 09:38:41 65° 285° (WNW) 09:42:53 437.475
UNISAT 6 25 Aug 09:45:37 09:49:25 26° 67° (ENE) 09:53:10 437.425
PRISM 25 Aug 09:47:50 09:51:30 32° 263° (W) 09:55:14 437.425
AAUSAT CUBESAT 2 25 Aug 09:51:31 09:55:42 76° 103° (ESE) 09:59:51 437.432
AIST 1 25 Aug 09:52:45 09:56:51 44° 93° (E) 10:01:02
COMPASS 1 25 Aug 09:56:44 10:00:55 75° 284° (WNW) 10:05:05 437.405
HO-68 25 Aug 10:02:22 10:09:26 63° 292° (WNW) 10:16:27 435.675
ISS 25 Aug 10:02:38 10:05:32 29° 138° (SE) 10:08:27 145.825
CUBEBUG 2 25 Aug 10:08:04 10:12:23 78° 284° (WNW) 10:16:33 437.445
Oscar 11 25 Aug 10:09:09 10:13:18 46° 99° (E) 10:17:26 145.826/435.025
DOVE 4 25 Aug 10:09:59 10:11:05 11° 305° (NW) 10:12:09 437.250
UWE-3 25 Aug 10:11:40 10:15:55 76° 103° (ESE) 10:20:03 435.000/436.395/437.385
FUNcube-1 25 Aug 10:12:50 10:16:51 45° 99° (E) 10:20:48 145.935
DELFI C3 25 Aug 10:19:36 10:22:54 24° 95° (E) 10:26:12 145.870
ANTELSAT 25 Aug 10:21:50 10:26:22 57° 73° (ENE) 10:30:50 437.575/2403.000
CUSAT 1 25 Aug 10:24:58 10:30:32 38° 74° (ENE) 10:37:15 437.405
BEESAT 3 25 Aug 10:29:09 10:32:31 28° 115° (ESE) 10:35:55 437.485
ZACube-1 25 Aug 10:32:37 10:36:50 83° 105° (ESE) 10:40:57 437.345
SEEDS 25 Aug 10:48:58 10:51:35 16° 296° (WNW) 10:54:12 437.485
TIGRISAT 25 Aug 10:53:31 10:58:08 72° 258° (WSW) 11:02:42 435.000
QB50P1 25 Aug 10:53:54 10:57:00 20° 65° (ENE) 11:00:06 145.935-145.965
DANDE 25 Aug 10:55:51 10:59:55 24° 73° (ENE) 11:04:55 436.750
POPSAT HIP 1 25 Aug 11:03:14 11:06:40 24° 66° (ENE) 11:10:07 437.405
BUGSAT 1 25 Aug 11:07:57 11:09:15 11° 60° (ENE) 11:10:33 437.445
Cosmos 2504 25 Aug 11:10:13 11:13:21 12° 304° (NW) 11:16:25 435.465 / 435.565
SO-50 25 Aug 11:14:16 11:16:05 12° 253° (WSW) 11:17:54 436.795
RS-15 25 Aug 11:19:34 11:32:02 87° 57° (ENE) 11:44:16 29.354- 29.394
UNISAT 6 25 Aug 11:21:44 11:25:59 35° 263° (W) 11:30:11 437.425
GONETS M04 25 Aug 11:24:49 11:31:00 22° 78° (ENE) 11:37:11
JAS-2 25 Aug 11:28:14 11:32:23 25° 62° (ENE) 11:36:44 435.910
AAUSAT CUBESAT 2 25 Aug 11:29:18 11:30:34 11° 299° (WNW) 11:31:51 437.432
AIST 1 25 Aug 11:31:46 11:34:43 18° 291° (WNW) 11:37:41
QB50P2 25 Aug 11:32:04 11:36:13 51° 72° (ENE) 11:40:23 145.880/145.840
DUCHIFAT 1 25 Aug 11:33:32 11:37:34 43° 71° (ENE) 11:41:37 145.980
POLYITAN 1 25 Aug 11:34:36 11:38:45 51° 72° (ENE) 11:42:55 437.675
ISS 25 Aug 11:38:44 11:41:55 44° 336° (NNW) 11:45:06 145.825
ESTCUBE 1 25 Aug 11:40:27 11:43:24 17° 91° (E) 11:46:20 437.505/2401.250
BEESAT 2 25 Aug 11:42:14 11:46:12 88° 123° (ESE) 11:50:12 435.950
HUMSAT D 25 Aug 11:43:05 11:47:11 79° 283° (WNW) 11:51:15 437.325/437.525
NANOSAT C BR1 25 Aug 11:45:46 11:49:58 64° 74° (ENE) 11:54:13 145.865
Oscar 11 25 Aug 11:46:09 11:49:06 18° 296° (WNW) 11:52:03 145.826/435.025
FUNcube-1 25 Aug 11:50:03 11:52:45 17° 296° (WNW) 11:55:25 145.935
UWE-3 25 Aug 11:50:27 11:51:44 11° 300° (WNW) 11:52:59 435.000/436.395/437.385
HO-68 25 Aug 11:52:24 11:55:47 14° 312° (NW) 11:59:09 435.675
DELFI C3 25 Aug 11:54:19 11:57:43 28° 291° (WNW) 12:01:08 145.870
PCSat 25 Aug 11:54:52 11:58:25 18° 105° (ESE) 12:01:59 145.827
50 SAT 25 Aug 11:58:00 11:58:46 11° 90° (E) 11:59:33 437.505
AISAT 25 Aug 12:00:24 12:03:00 15° 91° (E) 12:05:34 437.250
ANTELSAT 25 Aug 12:00:39 12:03:24 16° 269° (W) 12:06:08 437.575/2403.000
BEESAT 3 25 Aug 12:06:38 12:10:08 30° 314° (NW) 12:13:39 437.485
CUSAT 1 25 Aug 12:06:51 12:12:33 42° 266° (W) 12:19:25 437.405
ZACube-1 25 Aug 12:11:55 12:12:26 10° 301° (WNW) 12:12:58 437.345
AUBIESAT-1 25 Aug 12:17:16 12:21:17 44° 104° (ESE) 12:24:58 437.475
M-CUBED/EXP-1 PRIME 25 Aug 12:20:27 12:24:41 61° 106° (ESE) 12:28:34 437.505
Cosmos 2499 25 Aug 12:23:19 12:30:43 39° 88° (E) 12:37:38 435.465 / 435.565
UKube-1 25 Aug 12:24:34 12:26:38 13° 90° (E) 12:28:40 .
QB50P1 25 Aug 12:28:27 12:32:30 41° 262° (W) 12:36:34 145.935-145.965
Gurwin Techsat 1B 25 Aug 12:34:15 12:35:04 10° 54° (NE) 12:35:53 435.225
DANDE 25 Aug 12:37:50 12:42:42 49° 263° (W) 12:49:02 436.750
POPSAT HIP 1 25 Aug 12:38:25 12:42:18 33° 263° (W) 12:46:12 437.405
BUGSAT 1 25 Aug 12:39:44 12:43:58 81° 256° (WSW) 12:48:16 437.445
VELOX 1 25 Aug 12:46:47 12:51:03 42° 99° (E) 12:55:17 145.980
CUBEBUG 1 25 Aug 12:55:51 13:00:18 67° 102° (ESE) 13:04:41 437.445
QB50P2 25 Aug 13:09:45 13:12:19 15° 269° (W) 13:14:53 145.880/145.840
DUCHIFAT 1 25 Aug 13:10:34 13:13:28 18° 268° (W) 13:16:22 145.980
JAS-2 25 Aug 13:12:16 13:17:13 45° 262° (W) 13:22:25 435.910
POLYITAN 1 25 Aug 13:12:19 13:14:51 15° 269° (W) 13:17:23 437.675
DX 1 25 Aug 13:13:09 13:17:29 55° 101° (E) 13:21:47 434.975-435.025
ESTCUBE 1 25 Aug 13:16:05 13:20:30 51° 288° (WNW) 13:24:53 437.505/2401.250
ISS 25 Aug 13:16:19 13:18:57 21° 356° (N) 13:21:34 145.825
GONETS M04 25 Aug 13:17:56 13:26:41 82° 278° (W) 13:35:34
Oscar 19 25 Aug 13:19:37 13:24:35 50° 70° (ENE) 13:29:37 437.125/150
BEESAT 2 25 Aug 13:22:25 13:24:36 14° 323° (NW) 13:26:48 435.950
NANOSAT C BR1 25 Aug 13:24:22 13:26:08 12° 271° (W) 13:27:53 145.865
SPROUT 25 Aug 13:26:01 13:30:16 59° 101° (E) 13:34:28 437.525
50 SAT 25 Aug 13:29:07 13:32:40 53° 286° (WNW) 13:36:13 437.505
AIST 2 25 Aug 13:31:05 13:35:03 52° 120° (ESE) 13:39:05 435.215
AO-85 25 Aug 13:31:06 13:33:15 13° 31° (NNE) 13:35:20 145.980
RS-15 25 Aug 13:33:25 13:43:02 28° 259° (WSW) 13:52:33 29.354- 29.394
AISAT 25 Aug 13:35:26 13:39:50 56° 288° (WNW) 13:44:11 437.250
PCSat 25 Aug 13:35:49 13:41:13 70° 303° (WNW) 13:46:40 145.827
O/OREOS (USA 219) 25 Aug 13:42:40 13:42:57 10° 96° (E) 13:43:13 437.305
AUBIESAT-1 25 Aug 13:52:28 13:55:21 18° 303° (WNW) 13:58:07 437.475
TISAT 1 25 Aug 13:55:09 13:58:44 26° 95° (E) 14:02:16 437.305
M-CUBED/EXP-1 PRIME 25 Aug 13:56:11 13:58:38 15° 305° (NW) 14:00:59 437.505
UKube-1 25 Aug 13:58:46 14:03:04 62° 287° (WNW) 14:07:20 .
Gurwin Techsat 1B 25 Aug 14:08:45 14:14:01 66° 72° (ENE) 14:19:18 435.225
AO-7 25 Aug 14:12:23 14:18:58 27° 52° (NE) 14:25:32 29.400- 29.500
Cosmos 2499 25 Aug 14:15:55 14:23:42 46° 286° (WNW) 14:30:59 435.465 / 435.565
VELOX 1 25 Aug 14:23:54 14:27:14 21° 296° (WNW) 14:30:33 145.980
ITAMSAT 1 25 Aug 14:28:31 14:33:08 33° 66° (ENE) 14:37:43 435.822/435.867
CUBEBUG 1 25 Aug 14:33:41 14:36:02 14° 299° (WNW) 14:38:22 437.445
DX 1 25 Aug 14:50:30 14:53:15 16° 298° (WNW) 14:55:59 434.975-435.025
ITUPSAT 1 25 Aug 14:50:59 14:54:34 21° 93° (E) 14:58:10 437.325
ISS 25 Aug 14:53:11 14:56:07 29° 16° (NNE) 14:59:03 145.825
Oscar 19 25 Aug 15:00:18 15:04:11 21° 268° (W) 15:08:07 437.125/150
SPROUT 25 Aug 15:03:20 15:05:44 15° 298° (WNW) 15:08:07 437.525
AO-85 25 Aug 15:10:16 15:14:37 71° 54° (NE) 15:18:36 145.980
AIST 2 25 Aug 15:10:40 15:13:49 21° 319° (NW) 15:17:01 435.215
O/OREOS (USA 219) 25 Aug 15:17:06 15:21:36 83° 296° (WNW) 15:26:09 437.305
GONETS M04 25 Aug 15:19:12 15:25:03 19° 302° (WNW) 15:30:57
PCSat 25 Aug 15:22:26 15:25:39 16° 325° (NW) 15:28:53 145.827
SWISSCUBE 25 Aug 15:24:46 15:29:24 50° 100° (E) 15:34:02 437.505
TISAT 1 25 Aug 15:30:43 15:34:20 28° 292° (WNW) 15:37:57 437.305
BEESAT 25 Aug 15:42:08 15:46:54 68° 102° (ESE) 15:51:38 436.000
Gurwin Techsat 1B 25 Aug 15:51:04 15:54:27 17° 270° (W) 15:57:50 435.225
AO-7 25 Aug 16:02:30 16:10:53 81° 252° (WSW) 16:19:18 29.400- 29.500
ITAMSAT 1 25 Aug 16:07:53 16:12:32 33° 263° (W) 16:17:14 435.822/435.867
MOZHAYETS 4 25 Aug 16:18:22 16:22:09 25° 94° (E) 16:25:56
ITUPSAT 1 25 Aug 16:28:05 16:32:38 45° 290° (WNW) 16:37:09 437.325
ISS 25 Aug 16:29:32 16:32:48 67° 215° (SW) 16:36:04 145.825
KKS-1 25 Aug 16:30:55 16:34:39 25° 95° (E) 16:38:20 437.445
HORYU 2 25 Aug 16:52:24 16:56:35 41° 70° (ENE) 17:00:48 437.375
AO-85 25 Aug 16:52:53 16:54:19 12° 253° (WSW) 16:55:42 145.980
CUTE-I 25 Aug 16:53:52 16:55:32 11° 55° (NE) 16:57:12 437.470
O/OREOS (USA 219) 25 Aug 17:00:09 17:01:47 12° 314° (NW) 17:03:26 437.305
NOAA 15 25 Aug 17:01:27 17:04:43 17° 59° (ENE) 17:07:59 137.62
SWISSCUBE 25 Aug 17:03:24 17:06:51 20° 297° (WNW) 17:10:17 437.505
Cosmos 2491 25 Aug 17:04:02 17:06:52 12° 71° (ENE) 17:09:41 435.465 / 435.565
NOAA 18 25 Aug 17:11:10 17:14:30 16° 57° (ENE) 17:17:49 137.9125
STARS 25 Aug 17:13:27 17:17:29 34° 97° (E) 17:21:28 437.465
YUBILEINY 25 Aug 17:15:41 17:23:38 36° 69° (ENE) 17:31:29 435.215
BEESAT 25 Aug 17:21:20 17:24:08 16° 300° (WNW) 17:26:57 436.000
CUBESAT XI-V 25 Aug 17:31:54 17:35:21 20° 92° (E) 17:38:48 437.345
GOMX 1 25 Aug 17:39:52 17:43:58 25° 64° (ENE) 17:48:15 467.674
BRITE-PL 25 Aug 17:50:25 17:55:07 60° 72° (ENE) 18:00:16 437.365/2234.400
MOZHAYETS 4 25 Aug 17:55:14 17:59:23 35° 291° (WNW) 18:03:31
DOVE 4 25 Aug 17:59:31 18:03:06 19° 61° (ENE) 18:06:45 437.250
AO-7 25 Aug 17:59:51 18:04:52 17° 272° (W) 18:09:55 29.400- 29.500
KKS-1 25 Aug 18:07:13 18:11:15 33° 292° (WNW) 18:15:15 437.445
Cubesat XI-IV 25 Aug 18:16:47 18:22:00 56° 71° (ENE) 18:27:14 437.490
BEESAT 2 25 Aug 18:22:26 18:24:25 13° 36° (NE) 18:26:24 435.950
CUTE-I 25 Aug 18:29:20 18:34:39 73° 73° (ENE) 18:39:59 437.470
HORYU 2 25 Aug 18:29:59 18:33:19 20° 267° (W) 18:36:39 437.375
LilacSat-2 25 Aug 18:30:04 18:33:53 69° 76° (ENE) 18:37:43 437.200
NOAA 15 25 Aug 18:38:38 18:43:52 74° 257° (WSW) 18:49:10 137.62
BEESAT 3 25 Aug 18:44:33 18:48:05 29° 46° (NE) 18:51:35 437.485
HO-68 25 Aug 18:46:15 18:51:52 26° 56° (NE) 18:57:29 435.675
NOAA 18 25 Aug 18:48:54 18:54:27 83° 256° (WSW) 19:00:02 137.9125
CANX-2 25 Aug 18:49:27 18:50:32 11° 60° (ENE) 18:51:37 2200.000
STARS 25 Aug 18:50:06 18:53:40 24° 294° (WNW) 18:57:13 437.465
Cosmos 2491 25 Aug 18:53:15 19:01:48 65° 92° (E) 19:10:26 435.465 / 435.565
CUTE 1.7 + AOD 2 25 Aug 18:55:54 18:57:08 11° 60° (ENE) 18:58:21 437.475
CINEMA 3 25 Aug 18:57:47 19:01:21 20° 63° (ENE) 19:04:55 145.822/145.860
Cosmos 2504 25 Aug 19:00:51 19:08:00 53° 76° (ENE) 19:14:56 435.465 / 435.565
CUBESAT XI-V 25 Aug 19:08:28 19:12:57 46° 289° (WNW) 19:17:26 437.345
YUBILEINY 25 Aug 19:12:19 19:20:45 54° 270° (W) 19:29:07 435.215
GOMX 1 25 Aug 19:16:53 19:21:41 46° 262° (W) 19:26:51 467.674
BRITE-PL 25 Aug 19:31:01 19:34:08 17° 272° (W) 19:37:24 437.365/2234.400
STRAND 1 25 Aug 19:31:40 19:35:15 19° 92° (E) 19:38:48 437.568
CUBEBUG 2 25 Aug 19:33:24 19:35:25 13° 61° (ENE) 19:37:26 437.445
DOVE 4 25 Aug 19:35:09 19:40:13 65° 259° (W) 19:45:31 437.250
Cubesat XI-IV 25 Aug 19:58:32 20:02:26 20° 268° (W) 20:06:20 437.490
BEESAT 2 25 Aug 19:58:52 20:02:54 83° 55° (NE) 20:06:54 435.950
AIST 1 25 Aug 19:59:21 20:01:43 14° 67° (ENE) 20:04:04
SEEDS 25 Aug 20:05:09 20:09:03 40° 71° (ENE) 20:12:58 437.485
CUTE-I 25 Aug 20:12:09 20:15:15 15° 270° (W) 20:18:20 437.470
AIST 2 25 Aug 20:14:36 20:15:37 11° 31° (NNE) 20:16:39 435.215
CANX-2 25 Aug 20:21:33 20:25:45 80° 255° (WSW) 20:30:00 2200.000
BEESAT 3 25 Aug 20:22:14 20:25:43 29° 244° (WSW) 20:29:10 437.485
CUTE 1.7 + AOD 2 25 Aug 20:28:09 20:32:21 78° 258° (WSW) 20:36:35 437.475
HO-68 25 Aug 20:31:45 20:38:56 73° 256° (WSW) 20:46:10 435.675
CINEMA 3 25 Aug 20:33:07 20:38:04 57° 260° (W) 20:43:00 145.822/145.860
NOAA 18 25 Aug 20:34:11 20:35:54 11° 273° (W) 20:37:37 137.9125
PCSat 25 Aug 20:39:27 20:43:52 24° 43° (NE) 20:48:15 145.827
AAUSAT CUBESAT 2 25 Aug 20:42:50 20:46:52 58° 74° (ENE) 20:50:55 437.432
COMPASS 1 25 Aug 20:48:29 20:52:36 86° 80° (E) 20:56:45 437.405
Cosmos 2491 25 Aug 20:51:52 20:59:17 30° 294° (WNW) 21:06:47 435.465 / 435.565
Cosmos 2504 25 Aug 20:54:56 21:00:54 28° 276° (W) 21:06:47 435.465 / 435.565
Oscar 11 25 Aug 21:05:07 21:09:10 42° 71° (ENE) 21:13:14 145.826/435.025
CUBEBUG 2 25 Aug 21:06:42 21:11:25 82° 257° (WSW) 21:16:04 437.445
DELFI C3 25 Aug 21:07:26 21:10:08 18° 65° (ENE) 21:12:52 145.870
FUNcube-1 25 Aug 21:09:16 21:13:30 44° 72° (ENE) 21:17:40 145.935
UWE-3 25 Aug 21:09:19 21:13:54 74° 75° (ENE) 21:18:24 435.000/436.395/437.385
STRAND 1 25 Aug 21:09:46 21:14:46 56° 289° (WNW) 21:19:45 437.568
PRISM 25 Aug 21:27:34 21:31:13 29° 96° (E) 21:34:52 437.425
ZACube-1 25 Aug 21:29:10 21:33:40 77° 75° (ENE) 21:38:04 437.345
GONETS M04 25 Aug 21:32:54 21:35:53 12° 51° (NE) 21:38:50
AUBIESAT-1 25 Aug 21:32:55 21:34:15 11° 52° (NE) 21:35:36 437.475
M-CUBED/EXP-1 PRIME 25 Aug 21:35:17 21:37:46 14° 54° (NE) 21:40:17 437.505
AIST 1 25 Aug 21:35:23 21:39:45 58° 265° (W) 21:44:03
SEEDS 25 Aug 21:42:05 21:44:55 18° 268° (W) 21:47:48 437.485
AIST 2 25 Aug 21:50:55 21:55:02 54° 51° (NE) 21:59:08 435.215
Cosmos 2499 25 Aug 22:14:26 22:17:05 12° 56° (ENE) 22:19:43 435.465 / 435.565
AAUSAT CUBESAT 2 25 Aug 22:21:00 22:22:44 12° 271° (W) 22:24:28 437.432
PCSat 25 Aug 22:22:19 22:27:43 64° 243° (WSW) 22:33:02 145.827
HO-68 25 Aug 22:24:56 22:27:51 13° 274° (W) 22:30:46 435.675
HUMSAT D 25 Aug 22:35:17 22:39:27 85° 79° (E) 22:43:37 437.325/437.525
DELFI C3 25 Aug 22:41:03 22:44:43 38° 262° (W) 22:48:25 145.870
ESTCUBE 1 25 Aug 22:41:31 22:44:42 19° 63° (ENE) 22:47:53 437.505/2401.250
Oscar 11 25 Aug 22:42:27 22:45:29 19° 268° (W) 22:48:32 145.826/435.025
TIGRISAT 25 Aug 22:44:28 22:47:39 20° 93° (E) 22:50:48 435.000
FUNcube-1 25 Aug 22:46:47 22:49:55 19° 268° (W) 22:53:03 145.935
UWE-3 25 Aug 22:49:06 22:50:49 12° 271° (W) 22:52:33 435.000/436.395/437.385
AISAT 25 Aug 22:59:14 23:02:09 17° 62° (ENE) 23:05:06 437.250
PRISM 25 Aug 23:02:56 23:06:26 26° 293° (WNW) 23:09:55 437.425
AUBIESAT-1 25 Aug 23:03:17 23:07:54 75° 69° (ENE) 23:12:33 437.475
M-CUBED/EXP-1 PRIME 25 Aug 23:06:57 23:11:37 85° 253° (WSW) 23:16:22 437.505
ZACube-1 25 Aug 23:09:19 23:10:26 11° 272° (W) 23:11:33 437.345
UNISAT 6 25 Aug 23:11:42 23:15:48 41° 98° (E) 23:19:50 437.425
UKube-1 25 Aug 23:20:38 23:23:03 15° 61° (ENE) 23:25:30 .
GONETS M04 25 Aug 23:26:27 23:35:09 55° 75° (ENE) 23:43:46
AIST 2 25 Aug 23:30:28 23:33:06 16° 249° (WSW) 23:35:45 435.215
CUSAT 1 25 Aug 23:33:11 23:34:50 14° 85° (E) 23:36:38 437.405
VELOX 1 25 Aug 23:45:14 23:49:28 45° 71° (ENE) 23:53:44 145.980
O/OREOS (USA 219) 25 Aug 23:46:42 23:50:42 28° 57° (ENE) 23:54:40 437.305
SO-50 25 Aug 23:48:12 23:51:37 19° 111° (ESE) 23:55:00 436.795
ANTELSAT 25 Aug 23:48:39 23:52:58 79° 286° (WNW) 23:57:14 437.575/2403.000
CUBEBUG 1 25 Aug 23:52:51 23:57:12 65° 74° (ENE) 00:01:35 437.445
Cosmos 2499 26 Aug 00:04:39 00:11:45 69° 79° (E) 00:18:49 435.465 / 435.565
50 SAT 26 Aug 00:07:18 00:10:52 79° 76° (ENE) 00:14:28 437.505
DX 1 26 Aug 00:09:46 00:14:02 57° 73° (ENE) 00:18:21 434.975-435.025
QB50P1 26 Aug 00:11:49 00:15:26 27° 95° (E) 00:19:01 145.935-145.965
ESTCUBE 1 26 Aug 00:16:51 00:21:10 47° 261° (W) 00:25:31 437.505/2401.250
JAS-2 26 Aug 00:18:02 00:23:26 25° 93° (E) 00:29:14 435.910
TIGRISAT 26 Aug 00:20:31 00:24:31 38° 290° (WNW) 00:28:27 435.000
SPROUT 26 Aug 00:20:36 00:24:48 53° 73° (ENE) 00:29:01 437.525
POPSAT HIP 1 26 Aug 00:21:26 00:25:18 33° 97° (E) 00:29:07 437.405
BUGSAT 1 26 Aug 00:21:53 00:23:51 13° 90° (E) 00:25:46 437.445
AISAT 26 Aug 00:33:52 00:38:13 53° 260° (W) 00:42:37 437.250
AUBIESAT-1 26 Aug 00:40:37 00:42:47 13° 266° (W) 00:44:59 437.475
TISAT 1 26 Aug 00:48:11 00:51:40 25° 67° (ENE) 00:55:09 437.305
UNISAT 6 26 Aug 00:49:08 00:52:14 20° 296° (WNW) 00:55:19 437.425
QB50P2 26 Aug 00:51:02 00:55:18 79° 104° (ESE) 00:59:30 145.880/145.840
DUCHIFAT 1 26 Aug 00:51:29 00:55:41 65° 101° (E) 00:59:50 145.980
POLYITAN 1 26 Aug 00:53:35 00:57:49 80° 101° (ESE) 01:02:01 437.675
UKube-1 26 Aug 00:54:21 00:58:37 61° 259° (WSW) 01:02:56 .
NANOSAT C BR1 26 Aug 01:04:14 01:08:29 84° 284° (WNW) 01:12:40 145.865
CUSAT 1 26 Aug 01:14:14 01:16:33 21° 293° (WNW) 01:19:14 437.405
BEESAT 26 Aug 01:15:38 01:17:28 12° 58° (ENE) 01:19:18 436.000
VELOX 1 26 Aug 01:23:03 01:26:09 18° 268° (W) 01:29:17 145.980
GONETS M04 26 Aug 01:23:50 01:31:34 35° 276° (W) 01:39:16
O/OREOS (USA 219) 26 Aug 01:26:00 01:30:07 33° 255° (WSW) 01:34:14 437.305
SO-50 26 Aug 01:26:52 01:31:41 61° 308° (NW) 01:36:27 436.795
Oscar 19 26 Aug 01:30:54 01:34:01 16° 90° (E) 01:37:07 437.125/150
CUBEBUG 1 26 Aug 01:31:58 01:33:56 13° 271° (W) 01:35:53 437.445
RS-15 26 Aug 01:44:16 01:55:05 50° 110° (ESE) 02:06:26 29.354- 29.394
QB50P1 26 Aug 01:47:33 01:51:10 28° 292° (WNW) 01:54:45 145.935-145.965
DX 1 26 Aug 01:48:13 01:50:36 14° 269° (W) 01:52:59 434.975-435.025
DANDE 26 Aug 01:51:44 01:53:48 21° 288° (WNW) 01:55:59 436.750
BUGSAT 1 26 Aug 01:55:30 01:59:36 56° 287° (WNW) 02:03:36 437.445
POPSAT HIP 1 26 Aug 01:57:34 02:00:55 23° 294° (WNW) 02:04:14 437.405
SPROUT 26 Aug 01:58:35 02:01:04 15° 269° (W) 02:03:33 437.525
ITUPSAT 1 26 Aug 01:58:59 02:03:04 29° 66° (ENE) 02:07:11 437.325
Cosmos 2499 26 Aug 01:59:07 02:04:05 21° 279° (W) 02:09:04 435.465 / 435.565
JAS-2 26 Aug 02:02:14 02:08:48 68° 288° (WNW) 02:16:08 435.910
TISAT 1 26 Aug 02:23:24 02:27:12 31° 264° (W) 02:31:00 437.305
Gurwin Techsat 1B 26 Aug 02:24:06 02:28:18 23° 93° (E) 02:32:28 435.225
DUCHIFAT 1 26 Aug 02:28:53 02:30:51 13° 299° (WNW) 02:32:48 145.980
QB50P2 26 Aug 02:29:10 02:30:28 11° 300° (WNW) 02:31:47 145.880/145.840
POLYITAN 1 26 Aug 02:31:47 02:32:59 11° 300° (WNW) 02:34:12 437.675
SWISSCUBE 26 Aug 02:32:26 02:37:09 69° 73° (ENE) 02:41:53 437.505
BEESAT 26 Aug 02:49:46 02:54:31 90° 250° (WSW) 02:59:19 436.000
Oscar 19 26 Aug 03:08:38 03:13:50 69° 287° (WNW) 03:19:00 437.125/150
SO-50 26 Aug 03:10:36 03:13:07 14° 329° (NNW) 03:15:38 436.795
MOZHAYETS 4 26 Aug 03:21:37 03:25:32 29° 67° (ENE) 03:29:26
KKS-1 26 Aug 03:30:16 03:34:06 29° 67° (ENE) 03:37:58 437.445
PHONESAT 2.4 26 Aug 03:32:46 03:35:06 20° 159° (SSE) 03:37:24 2401.200-2431.200
ITUPSAT 1 26 Aug 03:36:33 03:40:50 33° 263° (W) 03:45:07 437.325
JAS-2 26 Aug 03:49:39 03:52:52 14° 305° (NW) 03:56:14 435.910
RS-15 26 Aug 03:55:56 04:07:25 59° 315° (NW) 04:19:30 29.354- 29.394
AO-7 26 Aug 04:03:01 04:10:12 31° 95° (E) 04:17:18 29.400- 29.500
Gurwin Techsat 1B 26 Aug 04:03:23 04:08:29 49° 290° (WNW) 04:13:35 435.225
STARS 26 Aug 04:11:14 04:15:19 37° 69° (ENE) 04:19:25 437.465
SWISSCUBE 26 Aug 04:13:03 04:15:26 14° 270° (W) 04:17:49 437.505
ITAMSAT 1 26 Aug 04:18:24 04:23:36 76° 103° (ESE) 04:28:47 435.822/435.867
CUBESAT XI-V 26 Aug 04:36:42 04:40:19 23° 65° (ENE) 04:43:57 437.345
Oscar 19 26 Aug 04:51:14 04:52:11 10° 306° (NW) 04:53:09 437.125/150
MOZHAYETS 4 26 Aug 04:58:36 05:02:37 30° 264° (W) 05:06:40
Cosmos 2491 26 Aug 05:01:53 05:09:47 35° 68° (ENE) 05:17:40 435.465 / 435.565
KKS-1 26 Aug 05:06:39 05:10:36 30° 264° (W) 05:14:34 437.445
PHONESAT 2.4 26 Aug 05:08:14 05:11:04 40° 176° (S) 05:13:55 2401.200-2431.200
AO-85 26 Aug 05:26:13 05:29:59 20° 111° (ESE) 05:33:37 145.980
STARS 26 Aug 05:48:17 05:51:47 22° 266° (W) 05:55:17 437.465
BRITE-PL 26 Aug 05:54:03 05:58:21 22° 90° (E) 06:02:37 437.365/2234.400
AO-7 26 Aug 05:55:16 06:03:26 63° 295° (WNW) 06:11:34 29.400- 29.500
ITAMSAT 1 26 Aug 05:59:22 06:02:27 16° 301° (WNW) 06:05:31 435.822/435.867
CUBESAT XI-V 26 Aug 06:13:09 06:17:28 39° 263° (W) 06:21:49 437.345
RS-15 26 Aug 06:13:11 06:23:17 30° 347° (NNW) 06:33:41 29.354- 29.394
HORYU 2 26 Aug 06:17:54 06:22:19 67° 103° (ESE) 06:26:41 437.375
YUBILEINY 26 Aug 06:18:38 06:26:34 39° 85° (E) 06:34:29 435.215
Cubesat XI-IV 26 Aug 06:33:22 06:37:11 20° 92° (E) 06:40:57 437.490
PHONESAT 2.4 26 Aug 06:44:26 06:47:08 31° 193° (SSW) 06:49:51 2401.200-2431.200
CUTE-I 26 Aug 06:45:26 06:49:48 25° 94° (E) 06:54:08 437.470
STRAND 1 26 Aug 06:48:40 06:53:09 32° 66° (ENE) 06:57:39 437.568
NOAA 15 26 Aug 06:52:24 06:57:19 37° 97° (E) 07:02:12 137.62
Cosmos 2491 26 Aug 06:58:29 07:07:02 57° 270° (W) 07:15:34 435.465 / 435.565
AO-85 26 Aug 07:04:49 07:10:05 66° 307° (NW) 07:15:03 145.980
NOAA 18 26 Aug 07:09:44 07:14:47 36° 97° (E) 07:19:46 137.9125
GOMX 1 26 Aug 07:17:01 07:22:23 53° 98° (E) 07:27:30 467.674
BRITE-PL 26 Aug 07:31:34 07:37:11 60° 288° (WNW) 07:42:42 437.365/2234.400
DOVE 4 26 Aug 07:33:11 07:37:51 34° 95° (E) 07:42:15 437.250
LilacSat-2 26 Aug 07:36:06 07:39:54 86° 97° (E) 07:43:40 437.200
